Regional Weather Roundup
Issued by NWS

Home | Current Version | Previous Version | Text Only | Print | Product List | Glossary On
Versions: 1 2 3 4 5 6 7 8 9 10 11 12 13 14 15 16 17 18 19 20 21 22 23 24 25 26 27 28 29 30 31 32 33 34 35 36 37 38 39 40 41 42 43 44 45 46 47 48 49 50
000
ASUS45 KBOI 061010
RWRID

IDAHO REGIONAL WEATHER ROUNDUP
NATIONAL WEATHER SERVICE BOISE ID
300 AM MST TUE DEC 06 2016

NOTE: "FAIR" INDICATES FEW OR NO CLOUDS BELOW 12000 FEET
WITH NO SIGNIFICANT WEATHER AND/OR OBSTRUCTIONS TO VISIBILITY

IDZ012-014-061100-
SOUTHWEST IDAHO


CITY           SKY/WX    TMP DP  RH WIND       PRES   REMARKS
BOISE          CLOUDY    26  10  50 SE14      29.93S WCI  14
CALDWELL       CLOUDY    27  15  61 SE15      29.95F WCI  15
MOUNTAIN HOME  CLOUDY    21  16  79 E16       29.93F WCI   7
$$

IDZ016-017-061100-
SOUTHCENTRAL IDAHO


CITY           SKY/WX    TMP DP  RH WIND       PRES   REMARKS
BURLEY         CLEAR     10   6  84 NE3       29.92F
JEROME         CLEAR     13   9  84 NE17      29.92F WCI  -4
TWIN FALLS     CLEAR      6  -1  73 CALM      29.91F
$$

IDZ019>023-061100-
SOUTHEAST IDAHO


CITY           SKY/WX    TMP DP  RH WIND       PRES   REMARKS
IDAHO FALLS    CLEAR      6   1  80 N5        29.95F WCI  -3
POCATELLO      CLEAR      4   0  83 NE8       29.95F WCI  -9
REXBURG        CLEAR      7   2  80 CALM      29.95F
$$

IDZ006-010-011-018-031-032-061100-
CENTRAL IDAHO MOUNTAINS


CITY           SKY/WX    TMP DP  RH WIND       PRES   REMARKS
MCCALL         LGT SNOW  16  12  84 NE3       29.80S FOG
HAILEY         CLEAR      1  -6  71 NW10      29.92F WCI -14
STANLEY          N/A    -10 -16  74 E3        29.84F
SALMON         CLOUDY     3   1  92 CALM      29.97F
CHALLIS        PTCLDY     5   0  79 CALM      29.91F
$$

IDZ002-004-006-007-026-061100-
NORTHERN IDAHO


CITY           SKY/WX    TMP DP  RH WIND       PRES   REMARKS
LEWISTON       CLOUDY    33  21  61 SE7       29.93S WCI  27
LOWELL           N/A     29  25  85 CALM      30.01F
COEUR D`ALENE  CLOUDY    23  18  81 N13       29.96S WCI  11
MULLAN PASS    CLOUDY    10   7  87 SE9G18    29.75F WCI  -3
$$



USA.gov is the U.S. government's official web portal to all federal, state and local government web resources and services.